Location: Cambroso
(45.2833°N, 12.0850°E)
Time: 19:37:07
(UTC+00:00)

NOSS 3-1 (A) - Pass Details

Date: 21 January 2021
Orbit: 735 x 1477 km, 63.4° (Epoch: 02 March)

Event Time Altitude Azimuth Distance (km) Brightness Sun altitude
Rises 19:11:42 0° 321° (NW) 3,945 7.2 -32.8°
Reaches altitude 10° 19:14:13 10° 321° (NW) 3,082 6.6 -33.3°
Enters shadow 19:21:43 86° 254° (WSW) 1,322 4.0 -34.6°
